Flag for Austria Weather past 2 weeks in Perg, Upper Austria, Austria

Now
56 °F

Cool.


Feels Like: 56 °F
Forecast: 53 / 71 °F
Wind: 1 mph from Northwest

Location: Amstetten

Current Time: Sep 15, 2014 at 5:00:03 AM

Latest Report: Sep 15, 2014 at 4:00 AM


Visibility: N/A

Pressure: 30.05 "Hg

Humidity: 98%

Dew point: 56 °F

Location of PergLocation

Historic Weather in Perg — Graph

°F

Perg temperature yesterday

Maximum temperature yesterday: 63 °F (at 5:00 PM)
Minimum temperature yesterday: 55 °F (at 11:00 PM)
Average temperature yesterday: 58 °F

Past Weeks' High & Low Weather Summary

 TemperatureHumidityPressure
High79 °F (Sep 8, 4:00 PM)100% (Sep 3, 8:00 AM)30.14 "Hg (Sep 3, 8:00 AM)
Low53 °F (Sep 8, 7:00 AM)46% (Sep 8, 3:00 PM)29.88 "Hg (Aug 31, 5:00 PM)
Average61 °F89%30.01 "Hg
* Reported Aug 31 3:00 AM — Sep 15 3:00 AM, Perg, Weather by CustomWeather, © 2014

Note: Actual official high and low records may vary slightly from our data, if they occured in-between our weather recording intervals... More about our weather records

Advertising

Perg weather history for previous 24 hours

 ConditionsComfort  
Time TempWeatherWind HumidityBarometerVisibility
3:00 AM
Sep 15
56 °FCool.1 mph99%30.05 "HgN/A
2:00 AM56 °FCool.1 mph100%30.05 "HgN/A
1:00 AM56 °FCool.No wind99%30.06 "HgN/A
12:00 AM55 °FCool.1 mph99%30.06 "HgN/A
11:00 PM
Sep 14
55 °FCool.1 mph99%30.06 "HgN/A
10:00 PM56 °FCool.1 mph98%30.06 "HgN/A
9:00 PM58 °FCool.1 mph98%30.06 "HgN/A
8:00 PM57 °FCool.1 mph98%30.05 "HgN/A
7:00 PM60 °FCool.1 mph91%30.03 "HgN/A
6:00 PM63 °FMild.2 mph83%30.01 "HgN/A
5:00 PM63 °FMild.2 mph83%30.01 "HgN/A
4:00 PM62 °FMild.1 mph84%30.01 "HgN/A
3:00 PM62 °FMild.1 mph84%30.02 "HgN/A
2:00 PM61 °FCool.1 mph89%30.04 "HgN/A
1:00 PM60 °FCool.2 mph92%30.04 "HgN/A
12:00 PM60 °FCool.1 mph92%30.03 "HgN/A
11:00 AM58 °FCool.1 mph95%30.03 "HgN/A
10:00 AM57 °FCool.1 mph96%30.03 "HgN/A
9:00 AM57 °FCool.1 mph96%30.03 "HgN/A
8:00 AM56 °FCool.3 mph97%30.03 "HgN/A
7:00 AM56 °FCool.3 mph98%30.04 "HgN/A
6:00 AM56 °FCool.2 mph98%30.05 "HgN/A
5:00 AM56 °FCool.2 mph98%30.06 "HgN/A
Weather by CustomWeather, © 2014

See weather overviewHow to use our weather pages